SCP
-0 0 0 -0 0 0 0 0 0 0 0 0 0 0 0 0 0 0 0 0 0 -0 -0 -0 -0 -0 -0 -0 -0 -0 -0 -0 -0 -0 -0 0 -0 0 0 0 0 -0 -0 -0 -0 -0 -0 -0 -0
0 0 0 0 0 0 0 0 0 0 0 0 0 0 0 0 0 0 0 0 0 0 0 0 -0 -0 -0 -0 -0 -0 -0 -0 -0 -0 -0 -0 -0 -0 -0 0 0 -0 -0 -0 -0 -0 -0 -0 -0
0 0 0 0 0 0 0 0 0 0 0 0 0 0 0 0 0 0 0 -0 0 0 0 0 0 -0 -0 -0 -0 -0 -0 -0 -0 -0 -0 -0 -0 -0 -0 -0 -0 -0 -0 -0 -0 -0 -0 -0 -0
0 0 0 0 0 0 0 0 0 0 0 0 0 0 0 0 0 0 0 -0 0 0 0 0 0 0 0 0 -0 0 -0 -0 -0 -0 -0 -0 -0 -0 -0 -0 -0 -0 -0 -0 -0 -0 -0 -0 -0
0 0 0 0 0 0 0 0 0 0 0 0 0 0 0 0 0 0 0 -0 -0 0 0 0 0 0 -0 -0 0 0 0 -0 -0 -0 -0 -0 -0 -0 0 0 0 0 -0 -0 -0 -0 -0 -0 -0
0 0 0 0 0 0 0 0 0 0 0 0 0 0 0 0 0 0 0 -0 0 -0 0 0 0 0 0 0 0 0 0 0 0 0 0 0 0 0 0 0 0 0 0 0 -0 0 0 0 0
0 0 0 0 0 -0 0 0 0 0 0 0 0 0 0 0 0 0 0 0 0 0 0 0 0 0 0 0 0 0 0 0 0 0 0 0 0 0 0 0 0 0 0 0 0 0 0 0 0
0 0 0 0 0 0 0 0 0 0 0 0 0 0 0 0 0 0 0 0 0 0 0 0 0 0 0 0 0 0 0 0 0 0 0 0 0 0 0 0 0 0 0 0 0 0 0 0 0
0 0 0 0 0 0 0 0 0 0 0 0 0 0 0 0 0 0 0 0 0 0 0 0 0 0 0 0 0 0 0 0 0 0 0 0 0 0 0 0 0 0 0 0 0 0 0 0 0
0 0 0 0 0 0 0 0 0 0 0 0 0 0 0 0 0 0 0 0 0 0 0 0 0 0 0 0 0 0 0 0 0 0 0 0 0 0 0 0 0 0 0 0 0 0 0 0 0
0 0 0 0 0 0 0 0 0 0 0 0 0 0 0 0 0 0 0 0 0 0 0 0 0 0 0 0 0 0 0 0 0 0 0 0 0 0 0 0 0 0 0 0 0 0 0 0 0
0 0 0 0 0 0 0 0 0 0 0 0 0 0 0 0 0 0 0 0 0 0 0 0 0 0 0 0 0 0 0 0 0 0 0 0 0 0 0 0 0 0 0 0 0 0 0 0 0
0 0 0 0 0 0 0 0 0 0 0 0 0 0 0 0 0 0 0 0 0 0 0 0 0 0 0 0 0 0 0 0 0 0 0 0 0 0 0 0 0 0 0 0 0 0 0 0 0
0 0 0 0 0 0 0 0 0 0 0 0 0 0 0 0 0 0 0 0 0 0 0 0 0 0 0 0 0 0 0 0 0 0 0 0 0 0 0 0 0 0 0 0 0 0 0 0 0
0 0 0 0 0 0 0 0 0 0 0 0 0 0 0 0 0 0 0 0 0 0 0 0 0 0 0 0 0 0 0 0 0 0 0 0 0 0 0 0 0 0 0 0 0 0 0 0 0
0 0 0 0 0 0 0 0 0 0 0 0 0 0 0 0 0 0 0 0 0 0 0 0 0 0 0 0 0 0 0 0 0 0 0 0 0 0 0 0 0 0 0 0 0 0 0 0 0
0 0 0 0 0 0 0 0 0 0 0 0 0 0 0 0 0 0 0 0 0 0 0 0 0 0 0 0 0 0 0 0 0 0 0 0 0 0 0 0 0 0 0 0 0 0 0 0 0
0 0 0 0 0 0 0 0 0 0 0 0 0 0 0 0 0 0 0 0 0 0 0 0 0 0 0 0 0 0 0 0 0 0 0 0 0 0 0 0 0 0 0 0 0 0 0 0 0
0 0 0 0 0 0 0 0 0 0 0 0 0 0 0 0 0 0 0 0 0 0 0 0 0 0 0 0 0 0 0 0 0 0 0 0 0 0 0 0 0 0 0 0 0 0 0 0 0
0 0 0 0 0 0 0 0 0 0 0 0 0 0 0 0 0 0 0 0 0 0 0 0 0 0 0 0 0 0 0 0 0 0 0 0 0 0 0 0 0 0 0 0 0 0 0 0 0
0 0 0 0 0 0 0 -0 0 0 0 0 0 0 0 0 0 0 0 0 0 0 0 0 0 0 0 0 0 0 0 0 0 0 0 0 0 0 0 0 0 0 0 0 0 0 0 0 0
0 0 0 0 0 0 0 -0 -0 0 0 0 0 0 0 0 0 0 0 0 0 0 0 0 0 0 0 0 0 0 0 0 0 0 0 0 0 0 0 0 0 0 0 0 0 0 0 0 0
0 0 0 0 0 0 0 0 0 0 0 -0 0 0 -0 0 0 -0 0 -0 0 0 0 0 0 0 0 0 0 0 0 0 0 0 0 0 0 0 0 0 0 0 0 0 0 0 0 0 0
0 0 0 0 0 0 0 0 -0 0 0 0 0 0 0 0 0 0 0 -0 -0 0 0 0 0 0 0 0 0 0 0 0 0 0 0 0 0 0 0 0 0 0 0 0 0 0 0 0 0
0 0 0 0 0 0 0 0 0 0 0 0 0 0 0 0 0 0 0 -0 0 0 0 0 0 0 0 0 0 0 0 0 0 0 0 0 0 0 0 0 0 0 0 0 0 0 0 0 0
0 0 0 0 0 0 0 0 0 0 0 0 0 0 0 0 0 0 0 0 0 0 0 0 0 0 0 0 0 0 0 0 0 0 0 0 0 0 0 0 0 0 0 0 0 0 0 0 0
0 0 0 0 0 0 0 0 0 0 0 0 -0 0 0 0 0 -0 0 0 0 0 0 0 0 0 0 0 0 0 0 0 0 0 0 0 0 0 0 0 0 0 0 0 0 0 0 0 0
0 0 0 0 0 0 0 0 0 0 0 0 0 0 0 -0 -0 -0 -0 0 0 0 0 0 0 0 0 0 0 0 0 0 0 0 0 0 0 0 0 0 0 0 0 0 0 0 0 0 0
0 0 0 0 0 0 0 0 0 0 0 -0 0 0 0 -0 -0 -0 -0 0 0 0 -0 -0 -0 0 0 0 0 0 0 0 0 0 0 0 0 0 0 0 0 0 0 0 0 0 0 0 0
0 0 0 0 0 0 0 0 0 0 0 -0 -0 0 0 0 0 0 0 0 0 0 0 0 0 -0 0 0 0 0 0 0 0 0 0 0 0 0 0 0 0 0 0 0 0 0 0 0 0
Wind_Speed_500mb
9 7 5 4 7 9 8 11 5 7 5 5 14 10 13 7 12 9 4 11 21 33 39 41 39 40 41 40 34 32 29 27 25 24 24 19 22 24 26 22 21 18 15 15 13 9 10 10 11
10 7 2 4 8 4 10 8 12 12 5 5 10 8 5 13 26 14 11 15 21 28 35 36 37 37 36 37 35 33 30 31 33 30 29 27 23 22 21 21 21 21 18 17 11 10 11 11 14
9 6 2 8 6 9 9 11 9 5 11 8 4 9 7 8 14 17 12 22 24 25 33 36 38 38 37 34 36 34 35 35 35 34 28 27 26 24 20 20 20 22 23 20 19 19 19 20 22
6 4 7 7 13 14 13 11 7 5 7 16 8 11 13 21 9 12 19 22 27 27 32 38 40 42 41 43 36 41 42 40 33 25 25 27 26 24 21 19 22 23 22 21 19 19 21 22 22
4 2 4 4 10 12 11 22 16 7 5 5 9 10 12 20 27 26 15 22 28 28 34 40 43 44 43 43 42 42 43 42 39 30 28 27 23 21 20 21 20 20 19 18 17 16 15 14 14
2 5 5 6 10 11 14 19 6 8 10 6 8 15 16 23 22 26 23 21 26 29 34 40 46 47 45 44 44 43 42 42 38 33 28 23 22 20 19 18 18 17 15 13 10 8 7 6 7
7 7 6 7 9 14 8 3 6 6 7 15 11 4 12 17 16 19 23 26 29 33 37 40 46 49 48 47 47 43 45 42 40 36 30 25 21 18 16 15 13 12 10 9 9 6 4 4 6
5 9 3 8 5 12 6 4 9 10 11 14 10 11 12 10 13 19 27 32 35 37 40 44 48 51 51 51 49 48 47 45 41 37 33 29 24 21 19 18 16 15 13 10 6 5 6 9 11
6 6 5 10 10 10 3 2 8 10 18 15 19 39 45 44 38 32 35 41 44 45 45 46 51 55 56 55 51 51 50 47 44 42 37 32 27 23 21 20 17 15 13 10 8 9 10 12 14
8 7 15 12 9 10 10 10 29 9 22 25 41 53 53 55 54 51 51 50 52 52 50 51 53 58 61 61 59 57 56 53 50 45 40 36 32 29 27 24 22 19 15 12 11 12 12 13 15
13 13 11 16 33 26 14 15 22 7 15 53 43 49 40 46 55 60 61 60 59 54 57 57 58 60 65 67 65 63 62 59 55 49 47 44 39 36 32 28 24 22 18 15 14 14 15 16 19
7 27 26 13 16 11 12 28 16 25 70 69 68 65 68 65 63 66 68 65 64 63 62 64 64 66 69 71 72 69 68 65 61 57 56 53 48 43 37 34 30 24 21 18 17 16 17 19 23
10 11 30 47 42 43 44 54 27 41 91 83 80 69 67 62 62 59 59 64 68 70 68 68 68 70 73 75 76 76 75 72 67 64 62 58 54 48 43 38 34 28 24 22 20 20 23 25 27
6 15 25 28 35 39 23 56 9 61 73 73 70 70 61 56 58 55 57 61 67 67 70 68 70 72 74 78 79 79 79 77 74 71 67 64 58 53 49 45 40 35 31 27 23 21 21 23 25
12 14 18 13 24 14 22 20 22 72 63 65 75 66 61 59 58 62 61 65 66 67 67 69 71 73 76 80 81 83 83 82 81 78 73 70 65 61 56 52 47 42 37 32 27 24 22 23 26
7 3 9 4 9 8 21 20 44 52 42 53 54 52 65 75 80 86 81 83 80 75 72 70 73 75 77 81 83 87 85 84 85 83 79 76 71 66 63 59 52 47 41 36 31 26 24 24 24
6 12 15 20 24 12 17 20 28 46 31 40 62 92 94 103 100 100 94 91 91 88 83 77 74 75 75 81 86 89 88 87 89 87 85 81 75 71 68 63 57 52 48 43 38 32 28 25 26
17 12 13 14 14 13 12 34 27 71 71 67 75 94 101 106 110 100 96 90 82 74 73 78 77 75 73 79 87 90 90 91 92 90 89 84 80 76 73 69 64 59 56 49 43 39 32 27 25
5 12 23 15 17 8 40 46 37 47 54 74 75 72 91 94 100 94 83 79 74 65 61 64 71 73 79 82 87 93 93 93 94 94 91 89 86 82 79 75 70 67 60 52 49 46 38 31 28
12 23 35 27 29 11 27 43 37 39 47 66 76 81 69 85 93 93 86 68 60 56 50 47 53 67 76 85 88 91 88 91 94 94 94 94 91 87 84 80 76 70 64 62 58 52 45 39 30
9 13 34 28 13 11 19 27 15 18 26 53 74 86 70 77 79 69 73 68 53 46 44 45 47 55 70 80 86 90 89 92 96 100 99 98 94 91 89 83 78 72 69 65 60 56 50 45 33
30 22 26 21 11 13 10 29 12 16 20 18 50 49 53 46 52 64 70 63 61 45 33 38 50 62 67 71 78 87 94 97 96 96 94 96 97 96 93 86 80 76 72 68 64 60 55 49 40
21 10 13 7 9 10 3 6 3 9 12 22 19 20 34 43 43 54 58 64 49 43 37 38 43 54 64 71 73 78 86 91 89 88 90 94 96 97 93 88 83 79 76 72 69 67 62 54 49
3 4 9 8 4 11 19 16 40 7 7 5 19 62 41 38 56 59 62 65 47 30 34 40 40 44 54 62 67 71 78 84 84 84 81 90 94 95 93 89 86 84 81 79 75 70 64 58 52
6 7 6 6 1 17 7 5 31 21 31 15 19 35 13 37 57 76 75 69 55 35 29 33 34 35 40 48 55 63 68 73 77 77 79 81 87 95 95 94 95 92 86 81 78 75 71 66 58
16 19 12 14 10 24 7 14 35 14 20 54 34 29 14 41 56 73 73 66 54 40 31 28 26 29 33 36 47 52 60 71 75 76 78 79 79 81 89 93 93 88 84 82 81 79 74 69 63
8 11 7 6 10 6 25 29 29 35 13 7 5 16 36 50 47 60 58 63 42 42 31 26 23 25 29 36 43 45 50 64 73 72 73 75 74 77 77 83 88 89 88 87 86 85 81 76 69
13 4 5 2 7 16 13 28 25 45 52 13 19 34 72 76 64 54 51 40 38 47 49 46 40 43 44 41 43 49 55 60 66 71 76 74 74 78 78 76 80 87 91 90 90 89 85 82 76
4 8 8 3 11 24 35 27 21 44 43 19 21 56 57 58 61 59 52 42 42 41 43 45 43 48 58 63 62 61 64 70 72 77 77 79 81 82 82 79 78 81 89 94 95 92 89 87 82
11 24 15 20 20 19 22 22 24 26 31 50 52 55 62 60 66 62 56 56 56 53 53 59 56 46 41 45 53 58 67 73 79 88 88 88 89 88 84 82 81 82 84 93 98 97 95 94 91
Wind_Direction_500mb
225 237 271 306 46 59 271 264 271 261 250 198 142 164 197 193 171 211 274 186 187 193 195 196 195 199 200 202 207 210 209 203 205 200 206 206 211 212 214 209 201 187 190 207 223 227 239 261 265
230 240 262 96 93 52 267 250 240 234 259 204 189 199 232 251 231 266 215 197 184 191 199 199 197 199 197 199 203 201 195 198 205 196 197 203 212 222 223 217 216 218 235 252 265 264 266 264 263
226 220 221 97 118 192 225 222 244 268 246 201 246 243 250 235 238 229 227 203 196 196 202 202 200 202 200 196 198 194 197 200 201 208 225 233 238 247 242 235 231 234 241 246 252 263 271 273 275
205 174 55 104 225 249 219 251 236 289 241 225 238 277 252 245 260 234 232 218 213 209 210 206 202 205 206 205 202 199 203 210 232 237 237 237 236 240 239 235 235 239 242 250 256 261 265 269 274
202 40 53 307 259 265 254 265 264 220 252 209 202 261 253 263 251 252 248 231 225 222 216 212 209 210 212 213 215 215 218 226 238 242 234 231 229 225 223 224 230 238 244 249 252 255 257 265 271
95 68 35 261 264 273 278 264 243 219 242 245 225 255 257 269 269 253 244 228 228 230 225 220 215 216 217 219 220 223 226 232 239 240 233 226 222 221 222 224 227 229 230 229 229 226 234 253 268
116 89 230 254 265 304 260 313 213 231 246 261 234 245 275 292 274 258 241 231 227 228 228 227 224 221 220 222 226 227 230 228 228 229 229 227 220 219 223 226 226 225 218 208 202 208 228 274 309
154 99 270 249 263 273 315 245 281 229 265 250 220 242 267 290 296 251 237 231 230 231 231 229 226 225 223 225 225 226 227 224 224 225 223 216 215 222 222 223 219 221 225 230 247 288 313 324 330
163 64 243 252 184 250 255 266 276 264 267 245 228 249 274 281 282 267 240 231 230 231 230 229 227 226 226 226 227 227 226 224 224 223 218 215 219 223 217 218 216 222 230 244 267 286 307 320 327
152 146 228 215 209 245 289 250 288 266 269 263 260 267 275 278 275 271 263 257 245 240 240 233 228 226 226 227 228 228 228 226 227 225 220 217 220 219 217 217 217 224 236 250 266 285 304 311 324
184 210 216 244 246 268 282 280 273 197 276 267 261 293 290 280 280 272 268 264 266 265 246 243 235 229 227 228 229 229 229 229 229 225 222 221 224 225 220 220 220 227 240 256 270 281 291 305 319
231 242 240 255 256 280 270 291 265 221 270 287 287 291 286 281 279 278 273 270 270 264 258 246 240 236 232 229 230 232 231 230 229 227 224 223 225 224 222 221 225 233 241 251 264 279 297 312 322
220 243 253 263 272 274 281 272 254 260 283 289 289 290 288 284 283 282 282 275 265 263 259 254 245 242 237 233 232 231 232 232 231 228 228 226 225 226 225 226 229 234 244 255 265 283 300 310 319
280 265 273 284 274 265 228 270 210 268 280 286 287 292 291 285 289 286 279 281 274 270 264 255 250 246 241 239 238 235 234 232 231 231 231 229 227 227 228 228 229 230 234 243 257 272 288 303 315
286 312 312 224 262 231 222 295 231 274 285 286 286 285 289 289 291 288 290 287 286 282 272 264 254 247 244 242 240 237 237 234 233 233 232 230 228 228 229 229 228 228 230 237 244 260 280 298 311
304 179 302 5 131 261 161 257 273 289 275 278 284 286 289 287 286 287 283 282 282 280 277 270 258 251 245 244 243 240 238 236 234 233 232 230 228 228 229 230 228 229 232 236 240 251 268 287 305
332 250 224 300 222 197 186 254 254 282 296 267 275 284 288 288 287 283 282 282 282 282 277 270 263 254 246 243 242 242 240 237 235 232 231 230 229 230 231 231 230 230 232 232 236 242 255 277 298
234 236 252 244 277 182 229 252 273 279 288 275 275 281 283 285 286 291 293 293 291 287 278 267 261 254 246 242 241 239 238 236 234 232 231 230 230 230 231 230 229 230 229 231 236 241 252 267 287
183 238 252 264 264 299 279 276 270 271 272 278 280 273 278 281 296 298 298 298 297 293 284 269 258 250 242 238 237 235 235 235 233 232 231 230 230 230 231 230 229 229 230 234 234 238 244 257 274
249 269 272 276 263 249 272 273 278 264 255 258 270 279 277 289 298 302 305 307 309 306 294 272 258 252 249 244 239 236 235 235 234 232 229 228 228 229 230 230 230 230 228 228 231 235 240 248 256
209 235 264 266 303 253 298 280 233 274 253 259 263 270 280 287 293 313 316 318 317 316 302 282 264 254 249 245 238 235 233 233 231 228 227 227 227 228 230 229 230 230 230 231 234 235 237 241 243
264 226 256 271 347 279 2 297 174 233 263 276 271 284 291 311 321 330 327 330 324 318 307 284 262 252 246 242 239 236 237 234 235 235 232 229 227 227 228 228 228 229 230 230 232 232 233 240 243
240 176 237 191 203 318 274 281 99 101 229 272 295 288 331 356 354 343 343 332 319 304 307 286 265 254 249 243 239 236 236 237 239 238 233 231 229 228 228 227 226 227 229 230 231 231 233 236 243
108 98 57 46 96 281 188 179 295 157 243 274 318 312 332 356 3 2 352 344 333 294 292 285 266 254 249 247 244 241 238 236 236 237 236 234 231 230 228 228 228 229 229 228 229 230 232 236 239
139 79 313 327 40 232 90 154 254 292 281 267 279 288 298 3 9 10 1 350 345 326 300 289 268 261 258 251 249 246 244 241 240 239 239 235 232 231 230 228 227 227 227 228 228 229 232 234 236
184 171 176 221 253 283 98 243 266 250 282 283 282 277 312 360 5 2 4 359 356 350 345 326 302 283 266 260 256 251 247 243 241 242 241 240 238 236 235 232 231 231 230 229 229 229 231 233 234
179 179 237 313 264 254 266 274 298 291 304 0 327 322 345 341 341 349 347 346 9 13 7 354 333 321 308 287 268 256 255 252 247 245 246 246 246 241 239 236 235 234 230 229 229 229 230 231 233
183 211 233 349 253 250 228 256 269 290 289 308 323 347 342 339 349 359 354 348 344 3 358 352 344 333 318 301 288 274 264 259 256 251 248 248 246 244 241 237 234 234 234 231 229 229 228 229 232
196 234 222 237 207 260 267 259 256 272 296 15 353 349 9 11 10 10 12 9 3 359 356 345 338 331 326 316 302 290 279 273 267 260 254 252 250 247 244 239 235 233 233 232 231 230 229 230 232
197 253 241 241 252 246 269 265 297 325 339 23 40 19 11 10 6 5 5 5 7 7 2 5 2 354 328 304 300 299 292 284 278 269 262 256 252 250 247 246 241 235 232 232 232 232 230 230 230
Wind_Speed_850mb
9 7 5 4 7 9 8 11 5 7 5 5 14 10 13 7 12 9 4 11 21 33 39 41 39 40 41 40 34 32 29 27 25 24 24 19 22 24 26 22 21 18 15 15 13 9 10 10 11
10 7 2 4 8 4 10 8 12 12 5 5 10 8 5 13 26 14 11 15 21 28 35 36 37 37 36 37 35 33 30 31 33 30 29 27 23 22 21 21 21 21 18 17 11 10 11 11 14
9 6 2 8 6 9 9 11 9 5 11 8 4 9 7 8 14 17 12 22 24 25 33 36 38 38 37 34 36 34 35 35 35 34 28 27 26 24 20 20 20 22 23 20 19 19 19 20 22
6 4 7 7 13 14 13 11 7 5 7 16 8 11 13 21 9 12 19 22 27 27 32 38 40 42 41 43 36 41 42 40 33 25 25 27 26 24 21 19 22 23 22 21 19 19 21 22 22
4 2 4 4 10 12 11 22 16 7 5 5 9 10 12 20 27 26 15 22 28 28 34 40 43 44 43 43 42 42 43 42 39 30 28 27 23 21 20 21 20 20 19 18 17 16 15 14 14
2 5 5 6 10 11 14 19 6 8 10 6 8 15 16 23 22 26 23 21 26 29 34 40 46 47 45 44 44 43 42 42 38 33 28 23 22 20 19 18 18 17 15 13 10 8 7 6 7
7 7 6 7 9 14 8 3 6 6 7 15 11 4 12 17 16 19 23 26 29 33 37 40 46 49 48 47 47 43 45 42 40 36 30 25 21 18 16 15 13 12 10 9 9 6 4 4 6
5 9 3 8 5 12 6 4 9 10 11 14 10 11 12 10 13 19 27 32 35 37 40 44 48 51 51 51 49 48 47 45 41 37 33 29 24 21 19 18 16 15 13 10 6 5 6 9 11
6 6 5 10 10 10 3 2 8 10 18 15 19 39 45 44 38 32 35 41 44 45 45 46 51 55 56 55 51 51 50 47 44 42 37 32 27 23 21 20 17 15 13 10 8 9 10 12 14
8 7 15 12 9 10 10 10 29 9 22 25 41 53 53 55 54 51 51 50 52 52 50 51 53 58 61 61 59 57 56 53 50 45 40 36 32 29 27 24 22 19 15 12 11 12 12 13 15
13 13 11 16 33 26 14 15 22 7 15 53 43 49 40 46 55 60 61 60 59 54 57 57 58 60 65 67 65 63 62 59 55 49 47 44 39 36 32 28 24 22 18 15 14 14 15 16 19
7 27 26 13 16 11 12 28 16 25 70 69 68 65 68 65 63 66 68 65 64 63 62 64 64 66 69 71 72 69 68 65 61 57 56 53 48 43 37 34 30 24 21 18 17 16 17 19 23
10 11 30 47 42 43 44 54 27 41 91 83 80 69 67 62 62 59 59 64 68 70 68 68 68 70 73 75 76 76 75 72 67 64 62 58 54 48 43 38 34 28 24 22 20 20 23 25 27
6 15 25 28 35 39 23 56 9 61 73 73 70 70 61 56 58 55 57 61 67 67 70 68 70 72 74 78 79 79 79 77 74 71 67 64 58 53 49 45 40 35 31 27 23 21 21 23 25
12 14 18 13 24 14 22 20 22 72 63 65 75 66 61 59 58 62 61 65 66 67 67 69 71 73 76 80 81 83 83 82 81 78 73 70 65 61 56 52 47 42 37 32 27 24 22 23 26
7 3 9 4 9 8 21 20 44 52 42 53 54 52 65 75 80 86 81 83 80 75 72 70 73 75 77 81 83 87 85 84 85 83 79 76 71 66 63 59 52 47 41 36 31 26 24 24 24
6 12 15 20 24 12 17 20 28 46 31 40 62 92 94 103 100 100 94 91 91 88 83 77 74 75 75 81 86 89 88 87 89 87 85 81 75 71 68 63 57 52 48 43 38 32 28 25 26
17 12 13 14 14 13 12 34 27 71 71 67 75 94 101 106 110 100 96 90 82 74 73 78 77 75 73 79 87 90 90 91 92 90 89 84 80 76 73 69 64 59 56 49 43 39 32 27 25
5 12 23 15 17 8 40 46 37 47 54 74 75 72 91 94 100 94 83 79 74 65 61 64 71 73 79 82 87 93 93 93 94 94 91 89 86 82 79 75 70 67 60 52 49 46 38 31 28
12 23 35 27 29 11 27 43 37 39 47 66 76 81 69 85 93 93 86 68 60 56 50 47 53 67 76 85 88 91 88 91 94 94 94 94 91 87 84 80 76 70 64 62 58 52 45 39 30
9 13 34 28 13 11 19 27 15 18 26 53 74 86 70 77 79 69 73 68 53 46 44 45 47 55 70 80 86 90 89 92 96 100 99 98 94 91 89 83 78 72 69 65 60 56 50 45 33
30 22 26 21 11 13 10 29 12 16 20 18 50 49 53 46 52 64 70 63 61 45 33 38 50 62 67 71 78 87 94 97 96 96 94 96 97 96 93 86 80 76 72 68 64 60 55 49 40
21 10 13 7 9 10 3 6 3 9 12 22 19 20 34 43 43 54 58 64 49 43 37 38 43 54 64 71 73 78 86 91 89 88 90 94 96 97 93 88 83 79 76 72 69 67 62 54 49
3 4 9 8 4 11 19 16 40 7 7 5 19 62 41 38 56 59 62 65 47 30 34 40 40 44 54 62 67 71 78 84 84 84 81 90 94 95 93 89 86 84 81 79 75 70 64 58 52
6 7 6 6 1 17 7 5 31 21 31 15 19 35 13 37 57 76 75 69 55 35 29 33 34 35 40 48 55 63 68 73 77 77 79 81 87 95 95 94 95 92 86 81 78 75 71 66 58
16 19 12 14 10 24 7 14 35 14 20 54 34 29 14 41 56 73 73 66 54 40 31 28 26 29 33 36 47 52 60 71 75 76 78 79 79 81 89 93 93 88 84 82 81 79 74 69 63
8 11 7 6 10 6 25 29 29 35 13 7 5 16 36 50 47 60 58 63 42 42 31 26 23 25 29 36 43 45 50 64 73 72 73 75 74 77 77 83 88 89 88 87 86 85 81 76 69
13 4 5 2 7 16 13 28 25 45 52 13 19 34 72 76 64 54 51 40 38 47 49 46 40 43 44 41 43 49 55 60 66 71 76 74 74 78 78 76 80 87 91 90 90 89 85 82 76
4 8 8 3 11 24 35 27 21 44 43 19 21 56 57 58 61 59 52 42 42 41 43 45 43 48 58 63 62 61 64 70 72 77 77 79 81 82 82 79 78 81 89 94 95 92 89 87 82
11 24 15 20 20 19 22 22 24 26 31 50 52 55 62 60 66 62 56 56 56 53 53 59 56 46 41 45 53 58 67 73 79 88 88 88 89 88 84 82 81 82 84 93 98 97 95 94 91
Wind_Direction_850mb
225 237 271 306 46 59 271 264 271 261 250 198 142 164 197 193 171 211 274 186 187 193 195 196 195 199 200 202 207 210 209 203 205 200 206 206 211 212 214 209 201 187 190 207 223 227 239 261 265
230 240 262 96 93 52 267 250 240 234 259 204 189 199 232 251 231 266 215 197 184 191 199 199 197 199 197 199 203 201 195 198 205 196 197 203 212 222 223 217 216 218 235 252 265 264 266 264 263
226 220 221 97 118 192 225 222 244 268 246 201 246 243 250 235 238 229 227 203 196 196 202 202 200 202 200 196 198 194 197 200 201 208 225 233 238 247 242 235 231 234 241 246 252 263 271 273 275
205 174 55 104 225 249 219 251 236 289 241 225 238 277 252 245 260 234 232 218 213 209 210 206 202 205 206 205 202 199 203 210 232 237 237 237 236 240 239 235 235 239 242 250 256 261 265 269 274
202 40 53 307 259 265 254 265 264 220 252 209 202 261 253 263 251 252 248 231 225 222 216 212 209 210 212 213 215 215 218 226 238 242 234 231 229 225 223 224 230 238 244 249 252 255 257 265 271
95 68 35 261 264 273 278 264 243 219 242 245 225 255 257 269 269 253 244 228 228 230 225 220 215 216 217 219 220 223 226 232 239 240 233 226 222 221 222 224 227 229 230 229 229 226 234 253 268
116 89 230 254 265 304 260 313 213 231 246 261 234 245 275 292 274 258 241 231 227 228 228 227 224 221 220 222 226 227 230 228 228 229 229 227 220 219 223 226 226 225 218 208 202 208 228 274 309
154 99 270 249 263 273 315 245 281 229 265 250 220 242 267 290 296 251 237 231 230 231 231 229 226 225 223 225 225 226 227 224 224 225 223 216 215 222 222 223 219 221 225 230 247 288 313 324 330
163 64 243 252 184 250 255 266 276 264 267 245 228 249 274 281 282 267 240 231 230 231 230 229 227 226 226 226 227 227 226 224 224 223 218 215 219 223 217 218 216 222 230 244 267 286 307 320 327
152 146 228 215 209 245 289 250 288 266 269 263 260 267 275 278 275 271 263 257 245 240 240 233 228 226 226 227 228 228 228 226 227 225 220 217 220 219 217 217 217 224 236 250 266 285 304 311 324
184 210 216 244 246 268 282 280 273 197 276 267 261 293 290 280 280 272 268 264 266 265 246 243 235 229 227 228 229 229 229 229 229 225 222 221 224 225 220 220 220 227 240 256 270 281 291 305 319
231 242 240 255 256 280 270 291 265 221 270 287 287 291 286 281 279 278 273 270 270 264 258 246 240 236 232 229 230 232 231 230 229 227 224 223 225 224 222 221 225 233 241 251 264 279 297 312 322
220 243 253 263 272 274 281 272 254 260 283 289 289 290 288 284 283 282 282 275 265 263 259 254 245 242 237 233 232 231 232 232 231 228 228 226 225 226 225 226 229 234 244 255 265 283 300 310 319
280 265 273 284 274 265 228 270 210 268 280 286 287 292 291 285 289 286 279 281 274 270 264 255 250 246 241 239 238 235 234 232 231 231 231 229 227 227 228 228 229 230 234 243 257 272 288 303 315
286 312 312 224 262 231 222 295 231 274 285 286 286 285 289 289 291 288 290 287 286 282 272 264 254 247 244 242 240 237 237 234 233 233 232 230 228 228 229 229 228 228 230 237 244 260 280 298 311
304 179 302 5 131 261 161 257 273 289 275 278 284 286 289 287 286 287 283 282 282 280 277 270 258 251 245 244 243 240 238 236 234 233 232 230 228 228 229 230 228 229 232 236 240 251 268 287 305
332 250 224 300 222 197 186 254 254 282 296 267 275 284 288 288 287 283 282 282 282 282 277 270 263 254 246 243 242 242 240 237 235 232 231 230 229 230 231 231 230 230 232 232 236 242 255 277 298
234 236 252 244 277 182 229 252 273 279 288 275 275 281 283 285 286 291 293 293 291 287 278 267 261 254 246 242 241 239 238 236 234 232 231 230 230 230 231 230 229 230 229 231 236 241 252 267 287
183 238 252 264 264 299 279 276 270 271 272 278 280 273 278 281 296 298 298 298 297 293 284 269 258 250 242 238 237 235 235 235 233 232 231 230 230 230 231 230 229 229 230 234 234 238 244 257 274
249 269 272 276 263 249 272 273 278 264 255 258 270 279 277 289 298 302 305 307 309 306 294 272 258 252 249 244 239 236 235 235 234 232 229 228 228 229 230 230 230 230 228 228 231 235 240 248 256
209 235 264 266 303 253 298 280 233 274 253 259 263 270 280 287 293 313 316 318 317 316 302 282 264 254 249 245 238 235 233 233 231 228 227 227 227 228 230 229 230 230 230 231 234 235 237 241 243
264 226 256 271 347 279 2 297 174 233 263 276 271 284 291 311 321 330 327 330 324 318 307 284 262 252 246 242 239 236 237 234 235 235 232 229 227 227 228 228 228 229 230 230 232 232 233 240 243
240 176 237 191 203 318 274 281 99 101 229 272 295 288 331 356 354 343 343 332 319 304 307 286 265 254 249 243 239 236 236 237 239 238 233 231 229 228 228 227 226 227 229 230 231 231 233 236 243
108 98 57 46 96 281 188 179 295 157 243 274 318 312 332 356 3 2 352 344 333 294 292 285 266 254 249 247 244 241 238 236 236 237 236 234 231 230 228 228 228 229 229 228 229 230 232 236 239
139 79 313 327 40 232 90 154 254 292 281 267 279 288 298 3 9 10 1 350 345 326 300 289 268 261 258 251 249 246 244 241 240 239 239 235 232 231 230 228 227 227 227 228 228 229 232 234 236
184 171 176 221 253 283 98 243 266 250 282 283 282 277 312 360 5 2 4 359 356 350 345 326 302 283 266 260 256 251 247 243 241 242 241 240 238 236 235 232 231 231 230 229 229 229 231 233 234
179 179 237 313 264 254 266 274 298 291 304 0 327 322 345 341 341 349 347 346 9 13 7 354 333 321 308 287 268 256 255 252 247 245 246 246 246 241 239 236 235 234 230 229 229 229 230 231 233
183 211 233 349 253 250 228 256 269 290 289 308 323 347 342 339 349 359 354 348 344 3 358 352 344 333 318 301 288 274 264 259 256 251 248 248 246 244 241 237 234 234 234 231 229 229 228 229 232
196 234 222 237 207 260 267 259 256 272 296 15 353 349 9 11 10 10 12 9 3 359 356 345 338 331 326 316 302 290 279 273 267 260 254 252 250 247 244 239 235 233 233 232 231 230 229 230 232
197 253 241 241 252 246 269 265 297 325 339 23 40 19 11 10 6 5 5 5 7 7 2 5 2 354 328 304 300 299 292 284 278 269 262 256 252 250 247 246 241 235 232 232 232 232 230 230 230